AirNav   Everest Fuels
 
 1098 users online  

K98 Allison Municipal Airport
Allison, Iowa, USA

GOING TO ALLISON?


FAA INFORMATION EFFECTIVE 23 MAY 2019

Location

FAA Identifier: K98
Lat/Long: 42-45-49.9150N / 092-48-15.7000W
42-45.831917N / 092-48.261667W
42.7638653 / -92.8043611
(estimated)
Elevation: 1053 ft. / 321.0 m (surveyed)
Variation: 03E (1985)
Time zone: UTC -5 (UTC -6 during Standard Time)
Zip code: 50602

Airport Operations

Airport use: Open to the public
Activation date: 10/1958
Control tower: no
ARTCC: CHICAGO CENTER
FSS: FORT DODGE FLIGHT SERVICE STATION
NOTAMs facility: FOD (NOTAM-D service available)
Attendance: UNATNDD
Pattern altitude: 1853 ft. MSL
Wind indicator: yes
Segmented circle: no

Airport Communications

CTAF: 122.9
WX AWOS-3 at HPT (19 nm W): 121.025 (641-456-4055)

Nearby radio navigation aids

VOR radial/distance  VOR name  Freq  Var
ALOr305/21.8WATERLOO VOR/DME112.2000E
MCWr125/30.4MASON CITY VOR/DME114.9006E
JWJr006/39.4ELMWOOD VOR/DME109.4001E

Airport Services

Airframe service: NONE
Powerplant service: NONE
Bottled oxygen: NONE
Bulk oxygen: NONE

Runway Information

Runway 18/36

Dimensions: 1790 x 175 ft. / 546 x 53 m
Surface: turf, in fair condition
Runway edge markings: & 36 THLDS & EDGES MARKED WITH YELLOW CONES.
RUNWAY 18  RUNWAY 36
Traffic pattern: leftleft
Obstructions: none41 ft. pole, 1044 ft. from runway, 25:1 slope to clear
ANTENNA 60 FT RGT OF RY CNTRLN.

Airport Ownership and Management from official FAA records

Ownership: Publicly-owned
Owner: CITY OF ALLISON
823 BIRCH STREET
ALLISON, IA 50602
Phone 319-267-2245
Manager: JAY SCHRAGE
20664 - 190TH STREET
ALLISON, IA 50602
Phone (319) 267-2495
CELL PHONE: 319-239-5048

Airport Operational Statistics

Aircraft based on the field: 5
Single engine airplanes: 2
Ultralights: 3
    
Aircraft operations: avg 24/week *
60% transient general aviation
40% local general aviation
* for 12-month period ending 12 July 2018

Additional Remarks

ARPT CLSD WINTER MONTHS.
ARPT CLSD TO NGT OPNS.
RY 36 IS CALM WIND RY.

Instrument Procedures

There are no published instrument procedures at K98.

Some nearby airports with instrument procedures:

C25 - Waverly Municipal Airport (13 nm E)
KHPT - Hampton Municipal Airport (19 nm W)
KCCY - Northeast Iowa Regional Airport (20 nm NE)
KALO - Waterloo Regional Airport (22 nm SE)
KIFA - Iowa Falls Municipal Airport (27 nm SW)
 
Loc | Ops | Rwys | IFR | FBO | Links
Com | Nav | Svcs | Stats | Notes
Area around K98 (Allison Municipal Airport)
 
Road maps at: MapQuest Bing Google
 
Aerial photo
WARNING: Photo may not be current or correct
Aerial photo of K98 (Allison Municipal Airport)
Do you have a better or more recent aerial photo of Allison Municipal Airport that you would like to share? If so, please send us your photo.

 
Sectional chart

 
Airport distance calculator
Flying to Allison Municipal Airport? Find the distance to fly.

From to K98

Sunrise and sunset
Times for 19-Jun-2019
 Local
(UTC-5)
 Zulu
(UTC)
Morning civil twilight04:5809:58
Sunrise05:3410:34
Sunset20:5101:51
Evening civil twilight21:2702:27

Current date and time
Zulu (UTC)  19-Jun-2019 23:05:42
Local (UTC-5)  19-Jun-2019 18:05:42
 
METAR
KHPT 
19nm W 
192255Z AUTO 14005KT 10SM SCT055 23/16 A2970 RMK AO2
KCCY 
20nm NE 
192255Z AUTO 07008KT 10SM FEW055 BKN080 24/12 A2971 RMK AO2
KALO 
22nm SE 
192254Z 10005KT 10SM SCT075 23/14 A2969 RMK AO2 SLP051 T02280144
KIFA 
27nm SW 
192255Z AUTO 12005KT 10SM CLR 23/15 A2972 RMK AO2 T02250148
KMCW 
33nm NW 
192253Z AUTO 08005KT 10SM SCT055 BKN080 24/12 A2973 RMK AO2 SLP057 T02390122
KOLZ 
37nm E 
192255Z AUTO 08009KT 10SM SCT070 22/17 A2971 RMK AO2 PWINO
TAF
KALO 
22nm SE 
191732Z 1918/2018 05006KT P6SM OVC080 FM200800 VRB03KT 5SM BR SCT150 FM201200 09004KT P6SM SCT110 FM201700 12005KT P6SM FEW120
NOTAMs
Click for the latest NOTAMs
NOTAMs are issued by the DoD/FAA and will open in a separate window not controlled by AirNav.

 

 
 

Would you like to see your business listed on this page?

 If your business provides an interesting product or service to pilots, flight crews, aircraft, or users of the Allison Municipal Airport, you should consider listing it here.  To start the listing process, click on the button below
 
Add a business
 

Other Pages about Allison Municipal Airport

Page from the Iowa Airport Directory
 
Update a link
 
Copyright © AirNav, LLC. All rights reserved. Privacy Policy  Contact